Location: Mahannah Oil Field
(37.4664°N, 96.6003°W)
Time: 13:44:32
(UTC+00:00)

Vanguard 2 - Visible Passes

Search period start: 25 January 2021 00:00
Search period end: 04 February 2021 00:00
Orbit: 553 x 2937 km, 32.9° (Epoch: 25 January)

Date Brightness Start Highest point End Pass type
(mag) Time Alt. Az. Time Alt. Az. Time Alt. Az.
25 Jan 8.0 00:52:12 10° WSW 00:56:20 50° S 01:00:35 17° ESE visible
25 Jan 9.7 02:59:48 10° W 03:02:00 23° WSW 03:02:00 23° WSW visible
26 Jan 8.1 01:09:58 10° W 01:14:05 45° S 01:17:32 21° SE visible
26 Jan 10.2 03:17:53 10° WSW 03:18:58 15° WSW 03:18:58 15° WSW visible
27 Jan 8.5 01:27:46 10° W 01:31:52 38° S 01:34:33 24° SE visible
28 Jan 8.9 01:45:40 10° WSW 01:49:37 30° SSW 01:51:36 24° SSE visible
29 Jan 9.3 02:03:45 10° WSW 02:07:24 23° SSW 02:08:44 21° S visible
30 Jan 8.3 00:13:26 10° WSW 00:17:05 36° S 00:21:26 10° ESE visible
30 Jan 9.7 02:22:11 10° WSW 02:25:12 16° SSW 02:25:55 16° S visible
31 Jan 8.7 00:31:20 10° WSW 00:34:48 28° SSW 00:38:54 10° SE visible
31 Jan 10.2 02:41:55 10° SW 02:43:00 11° SSW 02:43:12 11° SSW visible
01 Feb 9.2 00:49:24 10° WSW 00:52:31 21° SSW 00:56:07 10° SSE visible
02 Feb 9.7 01:07:52 10° WSW 01:10:13 15° SSW 01:12:51 10° SSE visible
